Time,TemperatureF,DewpointF,PressureIn,WindDirection,WindDirectionDegrees,WindSpeedMPH,WindSpeedGustMPH,Humidity,HourlyPrecipIn,Conditions,Clouds,dailyrainin,SoftwareType,DateUTC
2013-01-03 00:02:00,1.0,-5.1,29.98,North,11,7.0,13.0,75,0.00,,,0.00,meteohub,2013-01-03 05:02:00,
2013-01-03 00:05:00,0.9,-5.3,29.98,North,355,5.0,13.0,75,0.00,,,0.00,meteohub,2013-01-03 05:05:00,
2013-01-03 00:07:00,0.9,-5.3,29.98,NE,34,3.0,12.0,75,0.00,,,0.00,meteohub,2013-01-03 05:07:00,
2013-01-03 00:12:00,0.9,-5.3,29.98,NNW,348,4.0,12.0,75,0.00,,,0.00,meteohub,2013-01-03 05:12:00,
2013-01-03 00:17:00,0.9,-5.3,29.98,WNW,282,4.0,12.0,75,0.00,,,0.00,meteohub,2013-01-03 05:17:00,
2013-01-03 00:22:00,0.9,-5.3,29.98,North,5,3.0,10.0,75,0.00,,,0.00,meteohub,2013-01-03 05:22:00,
2013-01-03 00:27:00,0.9,-5.3,29.99,NNW,344,5.0,10.0,75,0.00,,,0.00,meteohub,2013-01-03 05:27:00,
2013-01-03 00:32:00,0.9,-5.3,29.99,North,5,13.0,13.0,75,0.00,,,0.00,meteohub,2013-01-03 05:32:00,
2013-01-03 00:37:00,0.9,-5.3,29.99,North,0,6.0,15.0,75,0.00,,,0.00,meteohub,2013-01-03 05:37:00,
2013-01-03 00:42:00,0.7,-5.1,29.99,North,5,7.0,15.0,76,0.00,,,0.00,meteohub,2013-01-03 05:42:00,
2013-01-03 00:47:00,0.5,-5.3,29.99,North,0,6.0,15.0,76,0.00,,,0.00,meteohub,2013-01-03 05:47:00,
2013-01-03 00:52:00,0.3,-5.4,29.99,NNE,14,2.0,9.0,76,0.00,,,0.00,meteohub,2013-01-03 05:52:00,
2013-01-03 00:57:00,0.3,-5.4,29.99,NNE,18,4.0,9.0,76,0.00,,,0.00,meteohub,2013-01-03 05:57:00,
2013-01-03 01:02:00,0.3,-5.4,29.99,NNW,344,4.0,10.0,76,0.00,,,0.00,meteohub,2013-01-03 06:02:00,
2013-01-03 01:07:00,0.1,-5.6,29.99,NNW,348,0.0,10.0,76,0.00,,,0.00,meteohub,2013-01-03 06:07:00,
2013-01-03 01:12:00,0.0,-5.8,30.00,NNW,348,3.0,10.0,76,0.00,,,0.00,meteohub,2013-01-03 06:12:00,
2013-01-03 01:17:00,0.0,-5.4,30.00,North,0,2.0,8.0,77,0.00,,,0.00,meteohub,2013-01-03 06:17:00,
2013-01-03 01:22:00,-0.2,-5.6,30.00,NW,324,4.0,6.0,77,0.00,,,0.00,meteohub,2013-01-03 06:22:00,
2013-01-03 01:27:00,-0.2,-5.6,30.00,NNW,331,3.0,6.0,77,0.00,,,0.00,meteohub,2013-01-03 06:27:00,
2013-01-03 01:32:00,-0.2,-5.6,30.00,NNE,18,1.0,7.0,77,0.00,,,0.00,meteohub,2013-01-03 06:32:00,
2013-01-03 01:37:00,-0.2,-5.6,30.01,NNW,337,0.0,8.0,77,0.00,,,0.00,meteohub,2013-01-03 06:37:00,
2013-01-03 01:42:00,-0.4,-5.8,30.01,North,355,4.0,8.0,77,0.00,,,0.00,meteohub,2013-01-03 06:42:00,
2013-01-03 01:47:00,-0.6,-6.0,30.01,North,5,3.0,8.0,77,0.00,,,0.00,meteohub,2013-01-03 06:47:00,
2013-01-03 01:52:00,-0.6,-5.8,30.01,North,351,2.0,6.0,78,0.00,,,0.00,meteohub,2013-01-03 06:52:00,
2013-01-03 01:57:00,-0.8,-6.0,30.01,NNW,342,0.0,6.0,78,0.00,,,0.00,meteohub,2013-01-03 06:57:00,
2013-01-03 02:02:00,-0.8,-6.0,30.02,North,350,3.0,5.0,78,0.00,,,0.00,meteohub,2013-01-03 07:02:00,
2013-01-03 02:07:00,-0.8,-6.0,30.02,North,9,2.0,5.0,78,0.00,,,0.00,meteohub,2013-01-03 07:07:00,
2013-01-03 02:12:00,-0.8,-6.0,30.02,North,0,3.0,8.0,78,0.00,,,0.00,meteohub,2013-01-03 07:12:00,
2013-01-03 02:17:00,-0.8,-6.0,30.01,North,0,3.0,8.0,78,0.00,,,0.00,meteohub,2013-01-03 07:17:00,
2013-01-03 02:22:00,-0.8,-6.0,30.02,North,355,3.0,8.0,78,0.00,,,0.00,meteohub,2013-01-03 07:22:00,
2013-01-03 02:27:00,-0.8,-6.0,30.02,NNW,348,3.0,7.0,78,0.00,,,0.00,meteohub,2013-01-03 07:27:00,
2013-01-03 02:32:00,-0.8,-6.0,30.02,NNW,348,2.0,6.0,78,0.00,,,0.00,meteohub,2013-01-03 07:32:00,
2013-01-03 02:37:00,-0.6,-6.0,30.01,North,0,3.0,6.0,77,0.00,,,0.00,meteohub,2013-01-03 07:37:00,
2013-01-03 02:42:00,-0.8,-6.2,30.01,North,5,2.0,7.0,77,0.00,,,0.00,meteohub,2013-01-03 07:42:00,
2013-01-03 02:47:00,-0.8,-6.0,30.02,NNW,343,2.0,7.0,78,0.00,,,0.00,meteohub,2013-01-03 07:47:00,
2013-01-03 02:52:00,-0.9,-6.2,30.02,WNW,294,4.0,7.0,78,0.00,,,0.00,meteohub,2013-01-03 07:52:00,
2013-01-03 02:57:00,-1.1,-6.3,30.02,WNW,302,0.0,8.0,78,0.00,,,0.00,meteohub,2013-01-03 07:57:00,
2013-01-03 03:03:00,-1.3,-6.5,30.02,NW,310,0.0,8.0,78,0.00,,,0.00,meteohub,2013-01-03 08:03:00,
2013-01-03 03:08:00,-1.5,-6.7,30.02,WNW,300,0.0,10.0,78,0.00,,,0.00,meteohub,2013-01-03 08:08:00,
2013-01-03 03:13:00,-1.7,-6.5,30.02,WNW,299,4.0,10.0,79,0.00,,,0.00,meteohub,2013-01-03 08:13:00,
2013-01-03 03:18:00,-1.8,-6.7,30.02,NNW,336,0.0,10.0,79,0.00,,,0.00,meteohub,2013-01-03 08:18:00,
2013-01-03 03:23:00,-2.0,-6.9,30.02,NW,319,0.0,9.0,79,0.00,,,0.00,meteohub,2013-01-03 08:23:00,
2013-01-03 03:29:00,-2.0,-6.9,30.02,North,355,3.0,9.0,79,0.00,,,0.00,meteohub,2013-01-03 08:29:00,
2013-01-03 03:34:00,-1.8,-6.7,30.02,NW,315,5.0,5.0,79,0.00,,,0.00,meteohub,2013-01-03 08:34:00,
2013-01-03 03:39:00,-1.7,-6.5,30.02,North,355,2.0,6.0,79,0.00,,,0.00,meteohub,2013-01-03 08:39:00,
2013-01-03 03:44:00,-1.7,-6.5,30.02,NW,314,4.0,8.0,79,0.00,,,0.00,meteohub,2013-01-03 08:44:00,
2013-01-03 03:49:00,-1.7,-6.5,30.01,NNW,344,8.0,8.0,79,0.00,,,0.00,meteohub,2013-01-03 08:49:00,
2013-01-03 03:54:00,-1.7,-6.9,30.01,North,355,2.0,8.0,78,0.00,,,0.00,meteohub,2013-01-03 08:54:00,
2013-01-03 04:00:00,-1.7,-6.9,30.01,NNE,14,5.0,11.0,78,0.00,,,0.00,meteohub,2013-01-03 09:00:00,
2013-01-03 04:05:00,-1.3,-6.5,30.01,North,9,1.0,11.0,78,0.00,,,0.00,meteohub,2013-01-03 09:05:00,
2013-01-03 04:10:00,-1.1,-6.3,30.01,NNE,28,8.0,8.0,78,0.00,,,0.00,meteohub,2013-01-03 09:10:00,
2013-01-03 04:15:00,-0.9,-6.2,30.01,WNW,298,1.0,8.0,78,0.00,,,0.00,meteohub,2013-01-03 09:15:00,
2013-01-03 04:20:00,-0.9,-6.2,30.01,NW,305,3.0,8.0,78,0.00,,,0.00,meteohub,2013-01-03 09:20:00,
2013-01-03 04:26:00,-0.8,-6.0,30.02,WNW,302,1.0,8.0,78,0.00,,,0.00,meteohub,2013-01-03 09:26:00,
2013-01-03 04:31:00,-0.9,-6.2,30.02,WNW,294,4.0,7.0,78,0.00,,,0.00,meteohub,2013-01-03 09:31:00,
2013-01-03 04:36:00,-1.8,-7.1,30.01,WNW,288,4.0,6.0,78,0.00,,,0.00,meteohub,2013-01-03 09:36:00,
2013-01-03 04:41:00,-2.7,-7.6,30.01,NW,313,4.0,6.0,79,0.00,,,0.00,meteohub,2013-01-03 09:41:00,
2013-01-03 04:46:00,-2.9,-7.6,30.01,NW,312,4.0,8.0,80,0.00,,,0.00,meteohub,2013-01-03 09:46:00,
2013-01-03 04:52:00,-2.9,-7.2,30.01,NNW,336,0.0,8.0,81,0.00,,,0.00,meteohub,2013-01-03 09:52:00,
2013-01-03 04:57:00,-2.7,-6.9,30.01,NNW,340,0.0,8.0,82,0.00,,,0.00,meteohub,2013-01-03 09:57:00,
2013-01-03 05:02:00,-2.9,-7.1,30.01,WNW,296,4.0,7.0,82,0.00,,,0.00,meteohub,2013-01-03 10:02:00,
2013-01-03 05:07:00,-2.7,-6.9,30.02,NNW,342,3.0,5.0,82,0.00,,,0.00,meteohub,2013-01-03 10:07:00,
2013-01-03 05:12:00,-2.6,-6.7,30.02,North,355,1.0,6.0,82,0.00,,,0.00,meteohub,2013-01-03 10:12:00,
2013-01-03 05:17:00,-2.6,-6.7,30.02,North,350,1.0,7.0,82,0.00,,,0.00,meteohub,2013-01-03 10:17:00,
2013-01-03 05:22:00,-2.6,-6.7,30.02,NW,317,1.0,7.0,82,0.00,,,0.00,meteohub,2013-01-03 10:22:00,
2013-01-03 05:27:00,-2.7,-6.9,30.03,WNW,292,1.0,7.0,82,0.00,,,0.00,meteohub,2013-01-03 10:27:00,
2013-01-03 05:32:00,-2.7,-6.9,30.03,WNW,291,1.0,4.0,82,0.00,,,0.00,meteohub,2013-01-03 10:32:00,
2013-01-03 05:37:00,-2.7,-6.9,30.03,WNW,283,2.0,4.0,82,0.00,,,0.00,meteohub,2013-01-03 10:37:00,
2013-01-03 05:42:00,-2.9,-7.1,30.03,WNW,286,0.0,7.0,82,0.00,,,0.00,meteohub,2013-01-03 10:42:00,
2013-01-03 05:47:00,-2.7,-6.7,30.03,West,279,1.0,7.0,83,0.00,,,0.00,meteohub,2013-01-03 10:47:00,
2013-01-03 05:53:00,-2.7,-6.7,30.03,WSW,254,0.0,7.0,83,0.00,,,0.00,meteohub,2013-01-03 10:53:00,
2013-01-03 05:58:00,-2.4,-6.3,30.03,NNW,342,0.0,6.0,83,0.00,,,0.00,meteohub,2013-01-03 10:58:00,
2013-01-03 06:03:00,-2.0,-6.2,30.03,WNW,289,2.0,5.0,82,0.00,,,0.00,meteohub,2013-01-03 11:03:00,
2013-01-03 06:08:00,-2.4,-6.5,30.03,WNW,302,2.0,5.0,82,0.00,,,0.00,meteohub,2013-01-03 11:08:00,
2013-01-03 06:14:00,-2.9,-7.1,30.03,NW,316,0.0,8.0,82,0.00,,,0.00,meteohub,2013-01-03 11:14:00,
2013-01-03 06:19:00,-3.3,-7.4,30.03,NNW,345,3.0,8.0,82,0.00,,,0.00,meteohub,2013-01-03 11:19:00,
2013-01-03 06:24:00,-3.6,-7.4,30.02,NNW,336,3.0,7.0,83,0.00,,,0.00,meteohub,2013-01-03 11:24:00,
2013-01-03 06:29:00,-3.6,-7.4,30.03,North,355,1.0,7.0,83,0.00,,,0.00,meteohub,2013-01-03 11:29:00,
2013-01-03 06:34:00,-3.6,-7.2,30.03,NW,326,0.0,6.0,84,0.00,,,0.00,meteohub,2013-01-03 11:34:00,
2013-01-03 06:39:00,-3.5,-7.1,30.03,NNE,14,0.0,6.0,84,0.00,,,0.00,meteohub,2013-01-03 11:39:00,
2013-01-03 06:45:00,-2.7,-6.3,30.03,NNW,340,3.0,4.0,84,0.00,,,0.00,meteohub,2013-01-03 11:45:00,
2013-01-03 06:50:00,-2.4,-6.3,30.03,NNW,345,1.0,8.0,83,0.00,,,0.00,meteohub,2013-01-03 11:50:00,
2013-01-03 06:55:00,-2.2,-6.2,30.02,WNW,301,6.0,8.0,83,0.00,,,0.00,meteohub,2013-01-03 11:55:00,
2013-01-03 07:00:00,-2.0,-6.0,30.02,WNW,299,2.0,7.0,83,0.00,,,0.00,meteohub,2013-01-03 12:00:00,
2013-01-03 07:05:00,-1.8,-6.0,30.02,NNW,329,0.0,7.0,82,0.00,,,0.00,meteohub,2013-01-03 12:05:00,
2013-01-03 07:10:00,-2.0,-6.2,30.02,NW,311,0.0,7.0,82,0.00,,,0.00,meteohub,2013-01-03 12:10:00,
2013-01-03 07:15:00,-1.8,-6.0,30.03,WNW,303,1.0,6.0,82,0.00,,,0.00,meteohub,2013-01-03 12:15:00,
2013-01-03 07:21:00,-1.5,-5.6,30.02,North,350,0.0,6.0,82,0.00,,,0.00,meteohub,2013-01-03 12:21:00,
2013-01-03 07:26:00,-1.3,-5.4,30.02,NNW,327,1.0,6.0,82,0.00,,,0.00,meteohub,2013-01-03 12:26:00,
2013-01-03 07:31:00,-1.1,-5.3,30.02,NNW,347,2.0,5.0,82,0.00,,,0.00,meteohub,2013-01-03 12:31:00,
2013-01-03 07:36:00,-0.9,-5.4,30.02,NNE,24,0.0,5.0,81,0.00,,,0.00,meteohub,2013-01-03 12:36:00,
2013-01-03 07:41:00,-1.1,-5.6,30.02,North,355,3.0,5.0,81,0.00,,,0.00,meteohub,2013-01-03 12:41:00,
2013-01-03 07:46:00,-1.3,-6.0,30.02,NE,38,3.0,7.0,80,0.00,,,0.00,meteohub,2013-01-03 12:46:00,
2013-01-03 07:50:00,-1.1,-5.6,30.02,NW,317,0.0,8.0,81,0.00,,,0.00,meteohub,2013-01-03 12:50:00,
2013-01-03 07:52:00,-1.1,-5.6,30.02,North,351,4.0,8.0,81,0.00,,,0.00,meteohub,2013-01-03 12:52:00,
2013-01-03 07:57:00,-0.9,-5.4,30.02,North,355,0.0,8.0,81,0.00,,,0.00,meteohub,2013-01-03 12:57:00,
2013-01-03 08:02:00,-0.8,-5.3,30.02,North,355,3.0,7.0,81,0.00,,,0.00,meteohub,2013-01-03 13:02:00,
2013-01-03 08:07:00,-0.4,-5.1,30.02,NNW,342,0.0,7.0,80,0.00,,,0.00,meteohub,2013-01-03 13:07:00,
2013-01-03 08:12:00,0.0,-4.7,30.02,North,0,3.0,7.0,80,0.00,,,0.00,meteohub,2013-01-03 13:12:00,
2013-01-03 08:17:00,0.1,-4.9,30.03,North,355,3.0,7.0,79,0.00,,,0.00,meteohub,2013-01-03 13:17:00,
2013-01-03 08:22:00,0.1,-5.1,30.03,North,349,3.0,7.0,78,0.00,,,0.00,meteohub,2013-01-03 13:22:00,
2013-01-03 08:27:00,0.3,-5.3,30.03,North,355,1.0,9.0,77,0.00,,,0.00,meteohub,2013-01-03 13:27:00,
2013-01-03 08:32:00,0.3,-5.3,30.03,North,355,2.0,11.0,77,0.00,,,0.00,meteohub,2013-01-03 13:32:00,
2013-01-03 08:37:00,0.3,-4.9,30.02,NNW,343,2.0,11.0,78,0.00,,,0.00,meteohub,2013-01-03 13:37:00,
2013-01-03 08:42:00,0.3,-4.9,30.03,North,9,2.0,6.0,78,0.00,,,0.00,meteohub,2013-01-03 13:42:00,
2013-01-03 08:47:00,0.5,-4.7,30.02,North,355,0.0,7.0,78,0.00,,,0.00,meteohub,2013-01-03 13:47:00,
2013-01-03 08:52:00,0.7,-4.9,30.02,NNW,340,1.0,7.0,77,0.00,,,0.00,meteohub,2013-01-03 13:52:00,
2013-01-03 08:57:00,0.9,-4.9,30.02,NW,312,4.0,7.0,76,0.00,,,0.00,meteohub,2013-01-03 13:57:00,
2013-01-03 09:02:00,1.0,-4.7,30.03,NNW,344,4.0,11.0,76,0.00,,,0.00,meteohub,2013-01-03 14:02:00,
2013-01-03 09:07:00,1.2,-4.9,30.03,NNW,343,3.0,11.0,75,0.00,,,0.00,meteohub,2013-01-03 14:07:00,
2013-01-03 09:12:00,1.6,-4.2,30.03,North,0,2.0,11.0,76,0.00,,,0.00,meteohub,2013-01-03 14:12:00,
2013-01-03 09:17:00,1.8,-4.4,30.04,NNE,13,4.0,8.0,75,0.00,,,0.00,meteohub,2013-01-03 14:17:00,
2013-01-03 09:22:00,1.9,-4.2,30.04,NNW,344,6.0,7.0,75,0.00,,,0.00,meteohub,2013-01-03 14:22:00,
2013-01-03 09:27:00,2.3,-4.0,30.04,NW,320,5.0,11.0,74,0.00,,,0.00,meteohub,2013-01-03 14:27:00,
2013-01-03 09:32:00,2.1,-4.5,30.03,WNW,296,3.0,11.0,73,0.00,,,0.00,meteohub,2013-01-03 14:32:00,
2013-01-03 09:37:00,2.1,-4.5,30.04,North,5,6.0,15.0,73,0.00,,,0.00,meteohub,2013-01-03 14:37:00,
2013-01-03 09:43:00,2.3,-4.0,30.03,NNE,16,3.0,15.0,74,0.00,,,0.00,meteohub,2013-01-03 14:43:00,
2013-01-03 09:48:00,2.5,-3.8,30.03,North,355,3.0,15.0,74,0.00,,,0.00,meteohub,2013-01-03 14:48:00,
2013-01-03 09:53:00,2.7,-4.0,30.03,North,351,10.0,12.0,73,0.00,,,0.00,meteohub,2013-01-03 14:53:00,
2013-01-03 09:58:00,2.5,-4.2,30.03,ENE,65,2.0,12.0,73,0.00,,,0.00,meteohub,2013-01-03 14:58:00,
2013-01-03 10:03:00,2.5,-4.2,30.03,NW,305,5.0,14.0,73,0.00,,,0.00,meteohub,2013-01-03 15:03:00,
2013-01-03 10:08:00,2.7,-4.0,30.03,West,273,2.0,14.0,73,0.00,,,0.00,meteohub,2013-01-03 15:08:00,
2013-01-03 10:13:00,2.8,-3.6,30.03,NW,311,4.0,14.0,74,0.00,,,0.00,meteohub,2013-01-03 15:13:00,
2013-01-03 10:19:00,2.8,-3.8,30.02,NNE,30,3.0,12.0,73,0.00,,,0.00,meteohub,2013-01-03 15:19:00,
2013-01-03 10:24:00,3.0,-3.6,30.02,NNW,348,5.0,14.0,73,0.00,,,0.00,meteohub,2013-01-03 15:24:00,
2013-01-03 10:29:00,3.0,-3.6,30.01,NNW,339,4.0,14.0,73,0.00,,,0.00,meteohub,2013-01-03 15:29:00,
2013-01-03 10:34:00,2.8,-4.2,30.01,WNW,302,5.0,14.0,72,0.00,,,0.00,meteohub,2013-01-03 15:34:00,
2013-01-03 10:39:00,3.0,-3.6,30.01,NNE,27,4.0,16.0,73,0.00,,,0.00,meteohub,2013-01-03 15:39:00,
2013-01-03 10:45:00,3.0,-3.6,30.00,North,0,4.0,16.0,73,0.00,,,0.00,meteohub,2013-01-03 15:45:00,
2013-01-03 10:50:00,3.2,-3.5,30.00,WSW,246,1.0,12.0,73,0.00,,,0.00,meteohub,2013-01-03 15:50:00,
2013-01-03 10:55:00,3.4,-3.6,30.00,NNE,15,7.0,15.0,72,0.00,,,0.00,meteohub,2013-01-03 15:55:00,
2013-01-03 11:00:00,3.4,-3.6,30.00,North,5,7.0,15.0,72,0.00,,,0.00,meteohub,2013-01-03 16:00:00,
2013-01-03 11:05:00,3.6,-3.1,30.00,NNE,25,3.0,15.0,73,0.00,,,0.00,meteohub,2013-01-03 16:05:00,
2013-01-03 11:10:00,3.6,-3.1,30.00,North,355,2.0,14.0,73,0.00,,,0.00,meteohub,2013-01-03 16:10:00,
2013-01-03 11:16:00,3.7,-3.3,29.99,North,9,10.0,13.0,72,0.00,,,0.00,meteohub,2013-01-03 16:16:00,
2013-01-03 11:21:00,3.7,-2.9,30.00,NNE,15,8.0,13.0,73,0.00,,,0.00,meteohub,2013-01-03 16:21:00,
2013-01-03 11:26:00,3.7,-3.3,29.99,North,5,9.0,13.0,72,0.00,,,0.00,meteohub,2013-01-03 16:26:00,
2013-01-03 11:31:00,3.9,-3.1,29.99,West,263,3.0,13.0,72,0.00,,,0.00,meteohub,2013-01-03 16:31:00,
2013-01-03 11:36:00,3.9,-3.1,29.99,NNW,329,7.0,13.0,72,0.00,,,0.00,meteohub,2013-01-03 16:36:00,
2013-01-03 11:41:00,4.1,-2.9,29.99,NNW,333,1.0,13.0,72,0.00,,,0.00,meteohub,2013-01-03 16:41:00,
2013-01-03 11:46:00,4.3,-2.7,29.98,NNE,25,4.0,12.0,72,0.00,,,0.00,meteohub,2013-01-03 16:46:00,
2013-01-03 11:52:00,4.5,-2.6,29.98,NNE,17,1.0,12.0,72,0.00,,,0.00,meteohub,2013-01-03 16:52:00,
2013-01-03 11:57:00,4.6,-2.4,29.98,North,0,4.0,8.0,72,0.00,,,0.00,meteohub,2013-01-03 16:57:00,
2013-01-03 12:02:00,4.8,-1.8,29.98,North,5,0.0,8.0,73,0.00,,,0.00,meteohub,2013-01-03 17:02:00,
2013-01-03 12:07:00,5.0,-1.8,29.97,NNW,346,4.0,8.0,73,0.00,,,0.00,meteohub,2013-01-03 17:07:00,
2013-01-03 12:12:00,5.0,-2.0,29.97,WNW,298,4.0,8.0,72,0.00,,,0.00,meteohub,2013-01-03 17:12:00,
2013-01-03 12:17:00,5.2,-1.8,29.97,WNW,293,4.0,9.0,72,0.00,,,0.00,meteohub,2013-01-03 17:17:00,
2013-01-03 12:22:00,5.0,-2.0,29.97,NW,319,3.0,10.0,72,0.00,,,0.00,meteohub,2013-01-03 17:22:00,
2013-01-03 12:27:00,5.2,-1.8,29.97,North,350,2.0,10.0,72,0.00,,,0.00,meteohub,2013-01-03 17:27:00,
2013-01-03 12:32:00,5.4,-1.7,29.97,North,355,4.0,10.0,72,0.00,,,0.00,meteohub,2013-01-03 17:32:00,
2013-01-03 12:37:00,5.4,-1.7,29.97,NW,312,2.0,10.0,72,0.00,,,0.00,meteohub,2013-01-03 17:37:00,
2013-01-03 12:42:00,5.4,-2.0,29.96,WNW,293,0.0,10.0,71,0.00,,,0.00,meteohub,2013-01-03 17:42:00,
2013-01-03 12:47:00,5.4,-2.0,29.96,NNE,18,5.0,14.0,71,0.00,,,0.00,meteohub,2013-01-03 17:47:00,
2013-01-03 12:52:00,5.4,-1.7,29.96,WNW,296,5.0,14.0,72,0.00,,,0.00,meteohub,2013-01-03 17:52:00,
2013-01-03 12:57:00,5.4,-1.7,29.96,NNE,33,4.0,14.0,72,0.00,,,0.00,meteohub,2013-01-03 17:57:00,
2013-01-03 13:02:00,5.5,-1.5,29.97,NW,310,5.0,12.0,72,0.00,,,0.00,meteohub,2013-01-03 18:02:00,
2013-01-03 13:07:00,5.5,-1.5,29.96,NNW,332,3.0,10.0,72,0.00,,,0.00,meteohub,2013-01-03 18:07:00,
2013-01-03 13:12:00,5.5,-1.5,29.96,North,355,6.0,11.0,72,0.00,,,0.00,meteohub,2013-01-03 18:12:00,
2013-01-03 13:17:00,5.7,-1.1,29.96,North,351,7.0,11.0,73,0.00,,,0.00,meteohub,2013-01-03 18:17:00,
2013-01-03 13:22:00,5.7,-1.1,29.96,NNE,24,3.0,10.0,73,0.00,,,0.00,meteohub,2013-01-03 18:22:00,
2013-01-03 13:27:00,5.7,-1.1,29.96,NW,319,1.0,9.0,73,0.00,,,0.00,meteohub,2013-01-03 18:27:00,
2013-01-03 13:32:00,5.9,-0.9,29.96,NNW,342,6.0,10.0,73,0.00,,,0.00,meteohub,2013-01-03 18:32:00,
2013-01-03 13:37:00,5.9,-0.9,29.96,North,5,7.0,10.0,73,0.00,,,0.00,meteohub,2013-01-03 18:37:00,
2013-01-03 13:42:00,6.1,-0.8,29.96,North,0,3.0,10.0,73,0.00,,,0.00,meteohub,2013-01-03 18:42:00,
2013-01-03 13:47:00,6.1,-0.8,29.95,North,0,4.0,10.0,73,0.00,,,0.00,meteohub,2013-01-03 18:47:00,
2013-01-03 13:52:00,6.3,-0.6,29.95,NE,55,2.0,10.0,73,0.00,,,0.00,meteohub,2013-01-03 18:52:00,
2013-01-03 13:57:00,6.3,-0.6,29.95,NNW,335,2.0,10.0,73,0.00,,,0.00,meteohub,2013-01-03 18:57:00,
2013-01-03 14:02:00,6.4,-0.4,29.95,WNW,301,5.0,9.0,73,0.00,,,0.00,meteohub,2013-01-03 19:02:00,
2013-01-03 14:08:00,6.4,-0.4,29.95,NNW,337,2.0,9.0,73,0.00,,,0.00,meteohub,2013-01-03 19:08:00,
2013-01-03 14:13:00,6.4,-0.4,29.95,North,350,3.0,9.0,73,0.00,,,0.00,meteohub,2013-01-03 19:13:00,
2013-01-03 14:18:00,6.4,-0.4,29.95,North,10,1.0,9.0,73,0.00,,,0.00,meteohub,2013-01-03 19:18:00,
2013-01-03 14:51:00,6.4,0.0,29.94,NNE,17,3.0,8.0,74,0.00,,,0.00,meteohub,2013-01-03 19:51:00,
2013-01-03 14:56:00,6.6,0.1,29.94,NNW,341,1.0,6.0,74,0.00,,,0.00,meteohub,2013-01-03 19:56:00,
2013-01-03 15:01:00,6.6,0.1,29.94,North,355,0.0,6.0,74,0.00,,,0.00,meteohub,2013-01-03 20:01:00,
2013-01-03 15:07:00,6.8,0.3,29.94,North,5,3.0,6.0,74,0.00,,,0.00,meteohub,2013-01-03 20:07:00,
2013-01-03 15:12:00,6.8,0.3,29.94,North,349,4.0,6.0,74,0.00,,,0.00,meteohub,2013-01-03 20:12:00,
2013-01-03 15:17:00,6.8,0.3,29.94,North,9,4.0,5.0,74,0.00,,,0.00,meteohub,2013-01-03 20:17:00,
2013-01-03 15:22:00,7.0,0.1,29.95,NNW,348,1.0,7.0,73,0.00,,,0.00,meteohub,2013-01-03 20:22:00,
2013-01-03 15:27:00,7.0,0.5,29.94,NNW,347,1.0,7.0,74,0.00,,,0.00,meteohub,2013-01-03 20:27:00,
2013-01-03 15:32:00,7.2,0.3,29.94,North,5,3.0,7.0,73,0.00,,,0.00,meteohub,2013-01-03 20:32:00,
2013-01-03 15:37:00,7.0,0.1,29.94,NW,314,2.0,6.0,73,0.00,,,0.00,meteohub,2013-01-03 20:37:00,
2013-01-03 15:42:00,7.0,0.1,29.94,NNE,15,1.0,6.0,73,0.00,,,0.00,meteohub,2013-01-03 20:42:00,
2013-01-03 15:47:00,6.8,0.3,29.94,NW,323,1.0,6.0,74,0.00,,,0.00,meteohub,2013-01-03 20:47:00,
2013-01-03 15:52:00,6.6,0.1,29.94,NW,323,0.0,6.0,74,0.00,,,0.00,meteohub,2013-01-03 20:52:00,
2013-01-03 15:57:00,6.4,0.0,29.94,NW,323,0.0,5.0,74,0.00,,,0.00,meteohub,2013-01-03 20:57:00,
2013-01-03 16:02:00,6.1,-0.2,29.94,NW,323,0.0,2.0,75,0.00,,,0.00,meteohub,2013-01-03 21:02:00,
2013-01-03 16:07:00,5.5,-0.4,29.94,WNW,289,0.0,2.0,76,0.00,,,0.00,meteohub,2013-01-03 21:07:00,
2013-01-03 16:12:00,4.8,-1.1,29.94,WNW,289,2.0,2.0,76,0.00,,,0.00,meteohub,2013-01-03 21:12:00,
2013-01-03 16:17:00,4.3,-1.3,29.93,WNW,289,1.0,2.0,77,0.00,,,0.00,meteohub,2013-01-03 21:17:00,
2013-01-03 16:22:00,3.9,-1.5,29.93,WNW,289,0.0,2.0,78,0.00,,,0.00,meteohub,2013-01-03 21:22:00,
2013-01-03 16:27:00,3.6,-1.8,29.93,WNW,289,0.0,2.0,78,0.00,,,0.00,meteohub,2013-01-03 21:27:00,
2013-01-03 16:32:00,3.6,-1.5,29.93,WNW,282,1.0,2.0,79,0.00,,,0.00,meteohub,2013-01-03 21:32:00,
2013-01-03 16:37:00,3.7,-1.3,29.93,West,280,0.0,5.0,79,0.00,,,0.00,meteohub,2013-01-03 21:37:00,
2013-01-03 16:42:00,3.9,-1.1,29.93,West,280,0.0,5.0,79,0.00,,,0.00,meteohub,2013-01-03 21:42:00,
2013-01-03 16:52:00,3.7,-1.3,29.93,West,279,0.0,2.0,79,0.00,,,0.00,meteohub,2013-01-03 21:52:00,
2013-01-03 16:57:00,3.6,-1.5,29.93,West,279,0.0,2.0,79,0.00,,,0.00,meteohub,2013-01-03 21:57:00,
2013-01-03 17:02:00,3.2,-1.8,29.93,West,279,0.0,2.0,79,0.00,,,0.00,meteohub,2013-01-03 22:02:00,
2013-01-03 17:07:00,2.8,-2.2,29.93,West,279,0.0,1.0,79,0.00,,,0.00,meteohub,2013-01-03 22:07:00,
2013-01-03 17:12:00,1.9,-2.7,29.93,West,279,0.0,0.0,80,0.00,,,0.00,meteohub,2013-01-03 22:12:00,
2013-01-03 17:17:00,1.6,-2.6,29.93,West,279,0.0,1.0,82,0.00,,,0.00,meteohub,2013-01-03 22:17:00,
2013-01-03 17:22:00,1.4,-2.6,29.93,West,279,0.0,1.0,83,0.00,,,0.00,meteohub,2013-01-03 22:22:00,
2013-01-03 17:27:00,1.0,-2.9,29.93,West,279,0.0,1.0,83,0.00,,,0.00,meteohub,2013-01-03 22:27:00,
2013-01-03 17:32:00,1.0,-2.7,29.93,West,279,0.0,2.0,84,0.00,,,0.00,meteohub,2013-01-03 22:32:00,
2013-01-03 17:37:00,1.0,-2.7,29.93,West,279,0.0,2.0,84,0.00,,,0.00,meteohub,2013-01-03 22:37:00,
2013-01-03 17:42:00,0.9,-3.1,29.93,West,279,0.0,2.0,83,0.00,,,0.00,meteohub,2013-01-03 22:42:00,
2013-01-03 17:47:00,0.5,-3.1,29.92,West,279,0.0,1.0,84,0.00,,,0.00,meteohub,2013-01-03 22:47:00,
2013-01-03 17:52:00,0.3,-3.3,29.92,West,279,0.0,1.0,84,0.00,,,0.00,meteohub,2013-01-03 22:52:00,
2013-01-03 17:57:00,0.1,-3.5,29.92,West,279,0.0,1.0,84,0.00,,,0.00,meteohub,2013-01-03 22:57:00,
2013-01-03 18:02:00,0.1,-3.3,29.92,West,279,0.0,1.0,85,0.00,,,0.00,meteohub,2013-01-03 23:02:00,
2013-01-03 18:07:00,0.0,-3.6,29.92,West,279,0.0,1.0,84,0.00,,,0.00,meteohub,2013-01-03 23:07:00,
2013-01-03 18:12:00,0.0,-3.5,29.92,West,279,0.0,1.0,85,0.00,,,0.00,meteohub,2013-01-03 23:12:00,
2013-01-03 18:17:00,0.1,-3.3,29.92,West,279,0.0,1.0,85,0.00,,,0.00,meteohub,2013-01-03 23:17:00,
2013-01-03 18:22:00,0.1,-3.5,29.92,West,279,0.0,1.0,84,0.00,,,0.00,meteohub,2013-01-03 23:22:00,
2013-01-03 18:27:00,0.3,-3.3,29.93,West,279,0.0,1.0,84,0.00,,,0.00,meteohub,2013-01-03 23:27:00,
2013-01-03 18:32:00,0.0,-3.6,29.93,West,279,0.0,1.0,84,0.00,,,0.00,meteohub,2013-01-03 23:32:00,
2013-01-03 18:37:00,0.0,-3.6,29.93,West,279,0.0,1.0,84,0.00,,,0.00,meteohub,2013-01-03 23:37:00,
2013-01-03 18:42:00,-0.2,-3.8,29.93,West,279,0.0,1.0,84,0.00,,,0.00,meteohub,2013-01-03 23:42:00,
2013-01-03 18:47:00,-0.6,-4.2,29.92,West,279,0.0,1.0,84,0.00,,,0.00,meteohub,2013-01-03 23:47:00,
2013-01-03 18:52:00,-0.8,-4.4,29.92,West,279,0.0,1.0,84,0.00,,,0.00,meteohub,2013-01-03 23:52:00,
2013-01-03 18:58:00,-1.1,-4.5,29.92,West,279,0.0,1.0,85,0.00,,,0.00,meteohub,2013-01-03 23:58:00,
2013-01-03 19:03:00,-1.3,-4.7,29.92,West,279,0.0,1.0,85,0.00,,,0.00,meteohub,2013-01-04 00:03:00,
2013-01-03 19:08:00,-1.3,-4.5,29.92,West,279,0.0,1.0,86,0.00,,,0.00,meteohub,2013-01-04 00:08:00,
2013-01-03 19:13:00,-1.1,-4.4,29.92,West,279,0.0,0.0,86,0.00,,,0.00,meteohub,2013-01-04 00:13:00,
2013-01-03 19:18:00,-0.9,-4.2,29.92,West,279,0.0,1.0,86,0.00,,,0.00,meteohub,2013-01-04 00:18:00,
2013-01-03 19:23:00,-0.9,-4.2,29.92,West,279,0.0,1.0,86,0.00,,,0.00,meteohub,2013-01-04 00:23:00,
2013-01-03 19:29:00,-1.1,-4.4,29.93,West,279,0.0,1.0,86,0.00,,,0.00,meteohub,2013-01-04 00:29:00,
2013-01-03 19:34:00,-1.3,-4.5,29.93,West,279,0.0,1.0,86,0.00,,,0.00,meteohub,2013-01-04 00:34:00,
2013-01-03 19:39:00,-1.5,-4.7,29.92,West,279,0.0,2.0,86,0.00,,,0.00,meteohub,2013-01-04 00:39:00,
2013-01-03 19:44:00,-1.8,-4.7,29.92,West,279,0.0,2.0,87,0.00,,,0.00,meteohub,2013-01-04 00:44:00,
2013-01-03 19:49:00,-1.8,-4.7,29.92,West,279,0.0,1.0,87,0.00,,,0.00,meteohub,2013-01-04 00:49:00,
2013-01-03 19:54:00,-1.8,-4.7,29.92,West,279,0.0,1.0,87,0.00,,,0.00,meteohub,2013-01-04 00:54:00,
2013-01-03 19:59:00,-1.8,-4.7,29.92,West,279,0.0,1.0,87,0.00,,,0.00,meteohub,2013-01-04 00:59:00,
2013-01-03 20:05:00,-1.5,-4.2,29.92,West,279,0.0,0.0,88,0.00,,,0.00,meteohub,2013-01-04 01:05:00,
2013-01-03 20:10:00,-0.9,-3.6,29.92,NNE,23,1.0,1.0,88,0.00,,,0.00,meteohub,2013-01-04 01:10:00,
2013-01-03 20:15:00,-0.2,-2.9,29.92,NNE,23,0.0,2.0,88,0.00,,,0.00,meteohub,2013-01-04 01:15:00,
2013-01-03 20:20:00,0.1,-2.6,29.92,North,5,0.0,3.0,88,0.00,,,0.00,meteohub,2013-01-04 01:20:00,
2013-01-03 23:05:00,-1.7,-5.1,29.88,West,262,0.0,-999.0,85,-99.99,,,0.00,meteohub,2013-01-04 04:05:00,
2013-01-03 23:10:00,-1.8,-5.3,29.88,West,262,0.0,1.0,85,0.00,,,0.00,meteohub,2013-01-04 04:10:00,
2013-01-03 23:15:00,-2.4,-6.0,29.88,West,262,0.0,1.0,84,0.00,,,0.00,meteohub,2013-01-04 04:15:00,
2013-01-03 23:20:00,-2.7,-6.3,29.88,West,262,0.0,1.0,84,0.00,,,0.00,meteohub,2013-01-04 04:20:00,
2013-01-03 23:25:00,-2.7,-6.2,29.88,West,262,0.0,1.0,85,0.00,,,0.00,meteohub,2013-01-04 04:25:00,
2013-01-03 23:30:00,-2.9,-6.3,29.88,West,262,0.0,1.0,85,0.00,,,0.00,meteohub,2013-01-04 04:30:00,
2013-01-03 23:36:00,-3.5,-6.9,29.88,West,262,1.0,0.0,85,0.00,,,0.00,meteohub,2013-01-04 04:36:00,
2013-01-03 23:41:00,-3.6,-7.1,29.88,West,262,0.0,1.0,85,0.00,,,0.00,meteohub,2013-01-04 04:41:00,
2013-01-03 23:46:00,-3.6,-6.7,29.88,West,262,0.0,1.0,86,0.00,,,0.00,meteohub,2013-01-04 04:46:00,
2013-01-03 23:51:00,-4.0,-7.1,29.88,West,262,0.0,1.0,86,0.00,,,0.00,meteohub,2013-01-04 04:51:00,
2013-01-03 23:56:00,-4.4,-7.4,29.88,West,262,1.0,2.0,86,0.00,,,0.00,meteohub,2013-01-04 04:56:00,